Hourly Data Report for August 06, 2018

TORONTO CITY
ONTARIO
Current Station Operator: ECCC - MSC

43°40'00.000" N
79°24'00.000" W
112.50 m
6158355
71508
XTO

Download Data

Hourly Data (August 2018)
Hourly Data Report for August 6, 2018
TIME
LST
Temp Definition
°C
Dew Point Definition
°C
Rel Hum Definition
%
Precip. Amount Definition
mm

Wind Dir Definition
10's deg

Wind Spd Definition
km/h
Visibility Definition
km
Stn Press Definition
kPa
Hmdx Definition


Wind Chill Definition


Weather Definition


00:00 25.3 19.8 71 0.0 LegendMM LegendMM   100.42 33   LegendNANA
01:00 24.9 19.5 72 0.0 LegendMM LegendMM   100.37 32   LegendNANA
02:00 24.9 19.2 71 0.0 LegendMM LegendMM   100.31 32   LegendNANA
03:00 25.0 18.8 68 0.0 LegendMM LegendMM   100.27 32   LegendNANA
04:00 23.8 19.1 75 0.0 LegendMM LegendMM   100.25 31   LegendNANA
05:00 24.2 19.3 74 0.0 LegendMM LegendMM   100.29 31   LegendNANA
06:00 24.2 19.4 75 0.0 LegendMM LegendMM   100.31 31   LegendNANA
07:00 25.2 19.9 72 0.0 LegendMM LegendMM   100.35 33   LegendNANA
08:00 26.7 19.7 66 0.0 LegendMM LegendMM   100.33 34   LegendNANA
09:00 27.5 20.1 64 0.0 LegendMM LegendMM   100.33 35   LegendNANA
10:00 29.5 19.3 54 0.0 LegendMM LegendMM   100.30 37   LegendNANA
11:00 29.9 19.7 54 0.0 LegendMM LegendMM   100.29 37   LegendNANA
12:00 31.7 18.7 46 0.0 LegendMM LegendMM   100.27 38   LegendNANA
13:00 30.9 18.9 49 0.0 LegendMM LegendMM   100.19 38   LegendNANA
14:00 25.6 20.3 72 0.0 LegendMM LegendMM   100.28 33   LegendNANA
15:00 21.7 19.5 87 7.3 LegendMM LegendMM   100.32 29   LegendNANA
16:00 24.1 21.6 86 0.6 LegendMM LegendMM   100.21 33   LegendNANA
17:00 24.7 20.3 76 0.0 LegendMM LegendMM   100.20 33   LegendNANA
18:00 23.6 19.9 80 0.0 LegendMM LegendMM   100.21 31   LegendNANA
19:00 23.6 19.8 80 0.0 LegendMM LegendMM   100.13 31   LegendNANA
20:00 24.0 20.4 80 0.0 LegendMM LegendMM   100.12 32   LegendNANA
21:00 24.1 19.8 77 0.0 LegendMM LegendMM   100.12 32   LegendNANA
22:00 23.6 19.6 78 0.0 LegendMM LegendMM   100.06 31   LegendNANA
23:00 24.8 19.2 71 0.0 LegendMM LegendMM   100.10 32   LegendNANA

Notes on Data Quality.

Legend

  • E = Estimated
  • M = Missing
  • NA = Not Available*
  • [empty] = Indicates an unobserved value
Date modified: